Regional Weather Roundup
Issued by NWS

Home | Current Version | Previous Version | Text Only | Print | Product List | Glossary Off
Versions: 1 2 3 4 5 6 7 8 9 10 11 12 13 14 15 16 17 18 19 20 21 22 23 24 25 26 27 28 29 30 31 32 33 34 35 36 37 38 39 40 41 42 43 44 45 46 47 48 49 50

000
ASUS43 KMPX 301001
RWRMN
WEATHER ROUNDUP FOR MINNESOTA
NATIONAL WEATHER SERVICE TWIN CITIES/CHANHASSEN MN
500 AM CDT SAT APR 30 2016


NOTE: "FAIR" INDICATES FEW OR NO CLOUDS BELOW 12,000 FEET WITH NO
SIGNIFICANT WEATHER AND/OR OBSTRUCTIONS TO VISIBILITY. N/A MEANS
CURRENT SKY AND/OR WEATHER CONDITIONS ARE NOT AVAILABLE.

MNZ060>063-068>070-301100-
   Twin Cities Metro

CITY           SKY/WX    TMP DP  RH WIND       PRES   REMARKS
TWIN CITIES    PTCLDY    43  31  62 NE9       30.10F
ST PAUL        CLEAR     43  31  62 CALM      30.12S
CRYSTAL        CLEAR     41  31  67 NE6       30.10F
BLAINE         CLEAR     39  34  81 NE6       30.11F
EDEN PRAIRIE   CLEAR     44  32  62 NE8       30.08F
SOUTH ST PAUL  CLEAR     44  32  63 N3        30.10F
LAKE ELMO      FAIR      41  32  70 NE6       30.12S
$$
MNZ001>005-007-008-013>017-022>024-027-028-301100-
   Northwest Minnesota

CITY           SKY/WX    TMP DP  RH WIND       PRES   REMARKS
BEMIDJI        CLEAR     33  29  88 E6        30.23S WCI  27
HALLOCK        CLEAR     39  30  70 E12       30.26R
ROSEAU         PTCLDY    34  30  86 E6        30.29R WCI  29
WARROAD        PTCLDY    34  30  86 CALM      30.30R
THIEF RVR FALL CLEAR     39  30  70 E8        30.25R
CROOKSTON      CLEAR     41  32  70 E8        30.24R
FOSSTON        CLEAR     36  28  75 E5        30.22F
DETROIT LAKES  CLEAR     41  32  70 E5        30.19S
MOORHEAD       CLEAR     45  30  57 E9        30.18S
PARK RAPIDS    CLEAR     39  29  67 NE5       30.19F
MAHNOMEN       FAIR      39  31  71 E7        30.19F
$$
MNZ006-009>011-018-025>026-301100-
   North Central Minnesota

CITY           SKY/WX    TMP DP  RH WIND       PRES   REMARKS
BAUDETTE       CLEAR     33  29  85 CALM      30.29R
FLAG ISLAND    CLEAR     41  30  65 CALM      30.30R
INTL FALLS     CLEAR     28  25  88 CALM      30.29R
WASKISH        CLEAR     36  32  87 NE6       30.27S
BIG FORK       CLEAR     34  28  80 N5        30.26S WCI  30
LONGVILLE      CLEAR     37  30  75 NE5       30.20F
GRAND RAPIDS   CLEAR     36  27  69 E3        30.24S
CRANE LAKE     PTCLDY    25  25 100 CALM      30.31R
ORR            CLOUDY    34  28  80 CALM      30.26R
COOK           MOCLDY    28  28 100 CALM      30.28R
WALKER         FAIR      40  32  73 NE6       30.21F
$$
MNZ012-019>021-037-301100-
   Northeast Minnesota

CITY           SKY/WX    TMP DP  RH WIND       PRES   REMARKS
DULUTH         CLEAR     37  29  72 E14       30.22S
ELY            CLOUDY    34  30  86 N3        30.27R
HIBBING        CLEAR     29  26  89 NE5       30.23F WCI  24
EVELETH        CLEAR     34  30  86 NE5       30.25F WCI  30
DULUTH HARBOR  CLEAR     37  36  93 NE16      30.24S
TWO HARBORS    CLEAR     39  32  75 NE7       30.22S
SILVER BAY     CLEAR     39  30  70 NE8       30.23F
GRAND MARAIS     N/A     43  30  60 NE7       30.28R
G MARAIS ARPRT CLOUDY    34  27  75 CALM      30.26R
$$
MNZ029>031-032-039>041-046>048-054>057-064-301100-
   West Central Minnesota

CITY           SKY/WX    TMP DP  RH WIND       PRES   REMARKS
FERGUS FALLS   CLEAR     43  30  61 E8        30.14S
WHEATON        CLEAR     43  36  75 NE9       30.14R
MORRIS         CLEAR     43  34  70 E15       30.10S
ALEXANDRIA     CLEAR     39  30  70 NE12      30.14F
ELBOW LAKE     FAIR      42  32  68 NE10      30.14S
WADENA         CLEAR     37  28  70 NE6       30.17S
GLENWOOD       CLEAR     37  32  81 NE12      30.12S
APPLETON       PTCLDY    43  34  70 E12       30.08S
BENSON         CLOUDY    43  30  61 E13       30.10S
ORTONVILLE     PTCLDY    43  34  70 E10G16    30.08S
MADISON        CLOUDY    39  36  87 E9        30.07F
WILLMAR        FAIR      43  34  70 NE13G18   30.09F
$$
MNZ033>034-036-042>043-049>051-058-059-301100-
   Central Minnesota

CITY           SKY/WX    TMP DP  RH WIND       PRES   REMARKS
ST CLOUD       CLEAR     39  29  67 NE9       30.13S
SAUK CENTRE    FAIR      38  31  74 NE7       30.13F
PAYNESVILLE    CLEAR     38  32  76 NE8       30.12F
AITKIN         CLEAR     37  28  70 NE3       30.18S
PINE RIVER     CLEAR     37  30  75 NE5       30.22S
BRAINERD       CLEAR     36  29  75 NE9       30.18S
STAPLES        CLEAR     36  28  75 CALM      30.17S
LONG PRAIRIE   FAIR      37  32  81 N7        30.14F
LITTLE FALLS   CLEAR     37  30  75 N3        30.15F
LITCHFIELD     CLOUDY    41  36  81 NE8       30.10S
BUFFALO        CLOUDY    40  31  70 NE12      30.12F
MAPLE LAKE     PTCLDY    40  33  75 NE8       30.12F
HUTCHINSON     CLEAR     41  35  79 NE10      30.09F
$$
MNZ037-044-045-052-053-301100-
   East Central Minnesota

CITY           SKY/WX    TMP DP  RH WIND       PRES   REMARKS
PRINCETON      CLEAR     39  30  70 NE8       30.14S
MORA           CLEAR     36  30  80 NE5       30.17S
CAMBRIDGE      CLEAR     39  28  65 NE7       30.13S
RUSH CITY      CLEAR     36  30  79 NE9       30.15S
MOOSE LAKE     CLEAR     34  30  86 NE3       30.18S
HINCKLEY       FAIR      36  32  87 NE8       30.17R
CLOQUET        CLEAR     37  28  70 NE8       30.21R
MCGREGOR       CLEAR     36  32  87 NE7       30.20S
$$
MNZ071>073-080-081-089-090-097-098-301100-
   Southwest Minnesota

CITY           SKY/WX    TMP DP  RH WIND       PRES   REMARKS
MONTEVIDEO     PTCLDY    39  36  87 E9        30.09F
GRANITE FALLS  PTCLDY    40  37  89 NE8       30.08S
CANBY          PTCLDY    38  38  98 NE5       30.07S
MARSHALL       PTCLDY    41  39  93 E12       30.04F
REDWOOD FALLS  MOCLDY    44  38  79 NE5       30.05F
OLIVIA         CLOUDY    39  34  81 NE8       30.06F
WINDOM         CLOUDY    43  39  87 NE10      30.01S
WORTHINGTON    CLOUDY    41  38  89 NE16      29.98S
JACKSON        CLOUDY    43  36  75 E15       30.00S
TRACY          PTCLDY    40  39  97 NE6       30.03F
SLAYTON        CLOUDY    40  40  97 NE10G16   30.01F
$$
MNZ065>067-074>077-082>085-091>093-301100-
   South Central Minnesota

CITY           SKY/WX    TMP DP  RH WIND       PRES   REMARKS
MANKATO        MOCLDY    45  37  76 NE14      30.03F
NEW ULM        PTCLDY    45  39  81 NE8       30.03F
ST JAMES       CLOUDY    37  36  93 NE9       30.03F
FAIRMONT       CLOUDY    45  28  53 NE12      30.00F
GLENCOE        PTCLDY    43  37  79 NE7       30.07F
FARIBAULT      PTCLDY    41  37  87 N6        30.06F
OWATONNA       CLOUDY    43  37  81 NE8       30.04F
WASECA         CLOUDY    41  36  81 NE10      30.04F
ALBERT LEA     MOCLDY    43  39  87 NE12      30.01F
$$
MNZ078>079-086>088-094>096-301100-
   Southeast Minnesota

CITY           SKY/WX    TMP DP  RH WIND       PRES   REMARKS
ROCHESTER      CLOUDY    41  38  89 NE8       30.05F
RED WING       CLOUDY    43  34  70 E3        30.09S
STANTON        CLOUDY    41  38  86 NE3       30.06F
DODGE CENTER   CLOUDY    39  37  93 NE7       30.05S
WINONA         CLOUDY    41  37  87 CALM      30.09R
AUSTIN         CLOUDY    43  37  81 NE8       30.03S
PRESTON        CLOUDY    41  36  83 E9        30.05S
$$
ABBREVIATIONS USED IN REMARKS
   TC - TEMPERATURES IN CELSIUS
  WCI - WIND CHILL INDEX
   HX - HEAT INDEX
  VSB - VISIBILITY
$$




USA.gov is the U.S. government's official web portal to all federal, state and local government web resources and services.